WMT499 LIRF-LICD

Flight info

Callsign WMT499
Flight time N/A
Altitude 35000
Route XIBRI5AXPEPIX9A/25 PEPIX M727 KOLEX
Aircraft A21N/M-SDE2E3FGHIRWXY/LB1

Departure

Time 2026-05-05 13:48
Airport Rome–Fiumicino Leonardo da Vinci International Airport (LIRF)

Arrival

Time N/A
Airport Lampedusa Airport (LICD)
Time Latitude Longitude Altitude Speed Heading
2026-05-05 13:32 41.79555 12.26155 19 ft 0 kts 115°
2026-05-05 13:37 41.79556 12.26151 19 ft 3 kts 115°
2026-05-05 13:37 41.79565 12.26124 21 ft 2 kts 115°
2026-05-05 13:37 41.79572 12.26093 21 ft 4 kts 84°
2026-05-05 13:38 41.79562 12.26065 22 ft 4 kts 36°
2026-05-05 13:38 41.79548 12.26054 19 ft 0 kts 25°
2026-05-05 13:41 41.79553 12.26057 19 ft 3 kts 25°
2026-05-05 13:41 41.79578 12.26073 19 ft 6 kts 25°
2026-05-05 13:41 41.79623 12.26101 19 ft 8 kts 25°
2026-05-05 13:42 41.79681 12.26138 19 ft 10 kts 25°
2026-05-05 13:42 41.79750 12.26134 19 ft 9 kts 347°
2026-05-05 13:42 41.79816 12.26125 21 ft 11 kts 310°
2026-05-05 13:42 41.79854 12.26024 19 ft 13 kts 295°
2026-05-05 13:43 41.79892 12.25917 20 ft 11 kts 295°
2026-05-05 13:43 41.79951 12.25870 19 ft 12 kts 22°
2026-05-05 13:43 41.80036 12.25923 19 ft 14 kts 24°
2026-05-05 13:43 41.80131 12.25983 21 ft 16 kts 25°
2026-05-05 13:44 41.80237 12.26048 19 ft 18 kts 22°
2026-05-05 13:44 41.80348 12.26117 22 ft 18 kts 26°
2026-05-05 13:44 41.80446 12.26172 21 ft 11 kts 12°
2026-05-05 13:44 41.80521 12.26212 22 ft 13 kts 66°
2026-05-05 13:45 41.80555 12.26337 21 ft 15 kts 70°
2026-05-05 13:45 41.80593 12.26476 21 ft 17 kts 70°
2026-05-05 13:45 41.80635 12.26629 21 ft 18 kts 70°
2026-05-05 13:45 41.80681 12.26790 20 ft 19 kts 70°
2026-05-05 13:46 41.80722 12.26939 21 ft 11 kts 70°
2026-05-05 13:46 41.80756 12.27031 19 ft 12 kts 39°
2026-05-05 13:46 41.80843 12.27025 19 ft 14 kts 340°
2026-05-05 13:46 41.80930 12.26982 19 ft 10 kts 339°
2026-05-05 13:47 41.80953 12.26911 18 ft 11 kts 249°
2026-05-05 13:47 41.80880 12.26649 20 ft 65 kts 248°
2026-05-05 13:47 41.80635 12.25759 22 ft 137 kts 250°
2026-05-05 13:47 41.80251 12.24338 192 ft 172 kts 245°
2026-05-05 13:48 41.79853 12.22832 900 ft 172 kts 243°
2026-05-05 13:48 41.79389 12.21348 1569 ft 175 kts 236°
2026-05-05 13:48 41.78556 12.20165 2191 ft 180 kts 212°
2026-05-05 13:48 41.77544 12.19126 2905 ft 187 kts 219°
2026-05-05 13:49 41.76528 12.17945 3553 ft 197 kts 219°
2026-05-05 13:49 41.75394 12.16823 4135 ft 214 kts 206°
2026-05-05 13:49 41.73839 12.16518 4479 ft 243 kts 176°
2026-05-05 13:49 41.72097 12.16719 5070 ft 259 kts 179°